DELTA 1 DEB, 29181

Orbit data source: Space-Track

DELTA 1 DEB, 29181 is space debris in LEO originally from a launch on Thu, 11 Jan 1968 UTC launched from the Air Force Western Test Range (AFWTR). Debris objects in space refer to the collection of defunct objects orbiting the Earth. Examples of debris include non-operational satellites, rocket bodies, and fragments generated from explosions, collisions, or faulty payload assembly.

Loading next visibility...
Identifier
29181, 1968-002E
Orbit
LEO
Last TLE update
3 months ago
Origin
Manufacturer
Unknown
Mission
Spacecraft
Bus & Motor
Unknown
Mass
Unknown
Launch date (UTC)
1968-01-11 (57 years ago)
Launch vehicle
Unknown
Launch site
Air Force Western Test Range (AFWTR)
Object type
Payload
Rocket body
Debris
Shape & HBR
Unknown
Radar Cross Section
Small (<0.1 m²)

Expand to show TLE details & history

TLE from 3 months ago
0 DELTA 1 DEB
1 29181U 68002E   25013.03373997  .00000090  00000-0  50953-3 0  9993
2 29181 105.7921 291.5651 0306850 334.8020  23.8353 12.91716047236620
Epoch: 2025-01-13T00:48Z
Definitive object data (Epoch: 2025-01-13T00:48:35.133Z)
Latitude
-0.00006°
Longitude
166.65814°
Altitude
1,083.006 km
Speed
7.412 km/s
True Right ascension
19h 26m 15s
True Declination
0° 00' 00"
Sunlit
Object was in daylight at TLE epoch
Visualization TLE readout
Latitude
-42.90688°
Longitude
109.14427°
Altitude
1,153.502 km
Speed
7.35 km/s
Apparent Right ascension
15h 50m 51s
Apparent Declination
-41° 25' 35"
Sunlit
Object is in daylight
Visualization observer readout
Local Sidereal Time
04:07:22
Azimuth
117.078° SE
Elevation
-86.523°
Doppler factor
1
Orbital elements
Apogee altitude
1,527.864 km
Perigee altitude
1,057.117 km
Semi-major axis
7,670.627 km
Eccentricity
0.030685
Inclination
105.7921°
RAAN
291.5651°
Arg. of periapsis
334.802°
True anomaly
25.30767°
Mean anomaly
23.8353°
Eccentric anomaly
24.56623°
Mean motion
3.2307 °/min
BSTAR
0.00050953
Orbital period
111.43 mins
Loading maneuver chart data...
Loading SW <> Apogee altitude chart data...
Loading historical data...
Loading historical data...
Loading historical data...
Loading historical data...
Loading historical data...
Loading historical data...
Loading historical data...

DELTA 1 DEB Visibility forecast

Observer location: undefined°, undefined°

Span
Click to sort rows by Start time (UTC) header in descending order
Start Az.
Max El. time (UTC)
Max El. Az.
Max El.
End time (UTC)
End Az.
13 mins2025-04-19 22:02:57.230Z200.218° SSW2025-04-19 22:09:57.230Z259.154° W27.193°2025-04-19 22:15:57.230Z312.622° NW
11 mins2025-04-20 09:45:57.230Z41.323° NE2025-04-20 09:50:57.230Z102.132° ESE33.117°2025-04-20 09:56:57.230Z174.042° S
10 mins2025-04-20 11:34:57.230Z3.339° NNE2025-04-20 11:39:57.230Z306.046° NW30.688°2025-04-20 11:44:57.230Z244.755° WSW
8 mins2025-04-20 18:38:57.230Z73.702° E2025-04-20 18:42:57.230Z40.7° NE16.987°2025-04-20 18:46:57.230Z8.798° NNE
15 mins2025-04-20 20:22:57.230Z142.71° SSE2025-04-20 20:29:57.230Z74.247° E43.174°2025-04-20 20:37:57.230Z342.161° N
|